Find Starlink 32705

NORAD ID: 62479 Int'l Des: 2024-254 Owner: SPXS Country: US Constellation: starlink operational
LEOCIRCULAR

Current View

Loading 3D Globe...

About Starlink 32705

Starlink 32705 (NORAD 62479) is a starlink constellation satellite (v2 mini) launched Dec 31, 2024 by SPXS of US. It operates in LEO, CIRCULAR orbit with a mass of 730.00 kg.

About Starlink 32705

Description loading...

Upcoming Passes

Passes for default location (London). Set your location on the main map for personalized predictions.

Altitude History

Loading altitude history...

Two-Line Element Set

1 62479U 24254T 26167.31250264 .00017520 00000-0 64445-3 0 9991
2 62479 43.0011 171.8223 0000876 269.5673 90.5078 15.27591598 82665
Epoch: Jun 16, 2026 • Age: 14 hours

Current Status

Altitude 491.8 km
Velocity 7.62 km/s
Sub-Earth Point -33.30°S, 101.93°W
Launch Date Dec 31, 2024
Age 1.4 years
Type internet

Technical Details

Classification Payload
Mass 730.00 kg
Dry Mass 700.00 kg
Total Mass 730.00 kg
Length 0.30 m
Diameter 4.10 m
Span 29.00 m
Shape Box + pan
Manufacturer SPXS
Bus Type Starlink V2M
Phase Status In Orbit
Owner/State SPXS/US

Most Searched